Regional Weather Roundup
Issued by NWS

Current Version | Previous Version | Text Only | Print | Product List | Glossary On
Versions: 1 2 3 4 5 6 7 8 9 10 11 12 13 14 15 16 17 18 19 20 21 22 23 24 25 26 27 28 29 30 31 32 33 34 35 36 37 38 39 40 41 42 43 44 45 46 47 48 49 50
000
ASUS43 KLMK 210910
RWRKY
KENTUCKY REGIONAL WEATHER ROUNDUP
NATIONAL WEATHER SERVICE LOUISVILLE KY
500 AM EDT MON APR 21 2014

NOTE "FAIR" INDICATES FEW OR NO CLOUDS BELOW 12,000 FEET
WITH NO SIGNIFICANT WEATHER AND/OR OBSTRUCTIONS TO VISIBILITY.

KYZ001>023-026-027-061>063-070>075-211000-
WESTERN AND SOUTH CENTRAL KENTUCKY

CITY           SKY/WX    TMP DP  RH WIND       PRES   REMARKS
PADUCAH        MOCLDY    57  48  72 SE3       30.05S
HENDERSON      MOCLDY    52  45  76 CALM      30.06S
OWENSBORO      MOCLDY    54  48  80 S3        30.07S
HOPKINSVILLE   PTCLDY    54  48  82 E1        30.08S
BOWLING GREEN  MOCLDY    48  45  89 CALM      30.10S
GLASGOW        PTCLDY    48  48 100 CALM      30.10S
$$

KYZ024-025-028>034-038-045-046-053-211000-
NORTH CENTRAL KENTUCKY

CITY           SKY/WX    TMP DP  RH WIND       PRES   REMARKS
LOUISVILLE/SDF PTCLDY    54  47  77 SE3       30.07S
LOUISVILLE/LOU CLEAR     54  45  71 CALM      30.08S
FORT KNOX      MOCLDY    50  44  80 CALM      30.07S
$$

KYZ035>037-039>044-047>052-055>060-089>105-211000-
NORTHEAST KENTUCKY

CITY           SKY/WX    TMP DP  RH WIND       PRES   REMARKS
LEXINGTON      MOCLDY    51  43  74 S6        30.09S
COVINGTON      MOCLDY    50  41  71 CALM      30.08S
FRANKFORT      PTCLDY    47  42  83 CALM      30.08S
$$

KYZ054-064>069-076>088-106>120-211000-
SOUTHEAST KENTUCKY

CITY           SKY/WX    TMP DP  RH WIND       PRES   REMARKS
JACKSON        PTCLDY    55  35  47 CALM      30.11R
LONDON         PTCLDY    49  44  83 CALM      30.11S
SOMERSET       MOCLDY    46  41  81 CALM      30.12S
MIDDLESBORO    MOCLDY    46  42  88 CALM      30.15S
MONTICELLO     SUNNY     43  40  89 CALM      30.12F
$$




USA.gov is the U.S. government's official web portal to all federal, state and local government web resources and services.